Location: South Troy
(42.7009°N, 73.6726°W)
Time: 23:11:39
(UTC+00:00)

Daily predictions for brighter satellites

Satellite Brightness Start Highest point End
(mag) Time Altitude Azimuth Time Altitude Azimuth Time Altitude Azimuth
USA 267 4.4 23:11:07 10° NE 23:17:10 41° NNW 23:23:13 10° W
NOSS 3-3 (A) 3.7 23:12:15 10° SSW 23:17:27 73° ESE 23:23:31 10° NE
Cosmos 1607 4.4 23:14:14 10° S 23:20:16 44° ESE 23:26:20 10° NE
Cosmos 2369 Rocket 3.9 23:17:08 10° N 23:20:40 16° NE 23:24:10 10° E
Cosmos 1707 2.6 23:19:06 10° N 23:22:36 55° E 23:26:05 10° SSE
ISS -1.6 23:20:59 10° WNW 23:23:34 20° N 23:26:09 10° NE
Cosmos 1980 3.9 23:18:06 10° SSW 23:23:46 79° WNW 23:29:30 10° NNE
Landsat 7 3.8 23:19:28 10° SSE 23:24:08 74° ENE 23:28:51 10° N
Meteor 1-31 Rocket 3.6 23:21:54 10° S 23:25:26 52° W 23:28:59 10° NNW
Resurs 01 Rocket 3.3 23:23:50 10° E 23:26:23 15° ENE 23:28:55 10° NNE
Aureole 3 Rocket 4.5 23:23:58 10° SE 23:28:33 24° E 23:32:10 10° NE
Cosmos 1464 Rocket 4.2 23:24:13 10° SSE 23:30:20 53° E 23:36:31 10° NNE
Cosmos 1733 2.9 23:29:46 10° S 23:33:07 56° E 23:36:28 10° NNE
Meteor 1-13 Rocket 4.5 23:30:22 10° N 23:35:59 50° ENE 23:41:28 10° SSE
SAR-Lupe-2 4.1 23:33:02 10° SE 23:36:21 37° ENE 23:39:42 10° N
Cosmos 1805 4.0 23:35:54 10° SSE 23:39:00 27° E 23:42:06 10° NNE
CZ-2C R/B 4.4 23:40:49 10° SSW 23:43:59 34° W 23:47:08 10° NNW
Cosmos 1315 Rocket 3.1 23:40:12 10° N 23:44:01 43° ENE 23:47:48 10° SSE
Cosmos 1842 3.8 23:40:58 10° NNW 23:44:31 57° W 23:48:05 10° S
Cosmos 1536 2.7 23:41:16 10° S 23:45:05 86° W 23:48:58 10° N
ATLAS CENTAUR R/B 3.7 23:47:08 10° W 23:49:53 20° NW 23:52:45 10° N
Cosmos 2208 Rocket 4.1 23:45:12 10° SSW 23:50:29 88° WNW 23:55:52 10° NNE
USA 234 4.1 23:44:16 10° SSE 23:50:33 49° SW 23:56:54 10° WNW
Resurs 1-3 3.5 23:48:45 10° SSE 23:53:01 66° ENE 23:57:20 10° N
SL-14 R/B 4.1 23:52:49 10° NNE 23:56:12 29° ENE 23:58:19 18° SE
